Location: Hilton Head Island
(32.2163°N, 80.7526°W)
Time: 21:06:23
(UTC-04:00)

Tiros 1 despin weight - Pass Details

Date: 18 February 2026
Orbit: 556 x 593 km, 48.2° (Epoch: 10 March)

Event Time Altitude Azimuth Distance (km) Brightness Sun altitude
Rises 15:10:27 0° 255° (WSW) 2,741 ? 33.0°
Reaches altitude 10° 15:12:54 10° 266° (W) 1,842 ? 32.6°
Maximum altitude 15:16:38 30° 329° (NNW) 1,005 ? 32.0°
Drops below altitude 10° 15:20:22 10° 32° (NNE) 1,836 ? 31.5°
Sets 15:22:49 0° 43° (NE) 2,731 ? 31.1°
